Weather History for Hillsdale, MI

Change the Weather History Date:

Tuesday, November 20, 2012

  Actual Average Record
Temperature  
Mean Temperature 48 °F -  
Max Temperature 57 °F 45 °F 66 °F (1953)
Min Temperature 40 °F 29 °F 7 °F (1951)
Degree Days  
Heating Degree Days 16    
Moisture  
Dew Point 37 °F    
Average Humidity 67    
Maximum Humidity 92    
Minimum Humidity 44    
Precipitation  
Precipitation 0.00 in - - ()
Sea Level Pressure  
Sea Level Pressure 30.11 in    
Wind  
Wind Speed 1 mph (SSE)    
Max Wind Speed 6 mph    
Max Gust Speed -    
Visibility 10 miles    
Events Rain    
Averages and records for this station are not official NWS values.
T = Trace of Precipitation, MM = Missing Value Source: NWS Daily Summary

Daily Weather History Graph

Daily Weather History Graph

Search for Another Location

Airport:

Trip Planner

Search our weather history database for the weather conditions in past years. The results will help you decide how hot, cold, wet, or windy it might be!

Date:

Astronomy

Nov. 20, 2012 Rise Set
Actual Time 7:34 AM EST 5:13 PM EST
Civil Twilight 7:04 AM EST 5:43 PM EST
Nautical Twilight 6:30 AM EST 6:17 PM EST
Astronomical Twilight 5:57 AM EST 6:50 PM EST
Moon 1:05 PM EST (11/20) No Moon Set
Length of Visible Light 10h 39m
Length of Day
9h 38m
Waxing Crescent, 51% of the Moon is Illuminated
Nov 20
Waxing Crescent
Nov 28
Full
Dec 6
Last Quarter
Dec 13
New
Dec 20
First Quarter

Hourly Weather History & Observations

Time (EST) Temp. Windchill Dew Point Humidity Pressure Visibility Wind Dir Wind Speed Gust Speed Precip Events Conditions
12:15 AM 45.3 °F 44.0 °F 33.8 °F 64% 30.16 in 10.0 mi SSE 3.5 mph - N/A   Scattered Clouds
12:35 AM 45.0 °F 43.5 °F 34.0 °F 65% 30.15 in 10.0 mi SSE 3.5 mph - N/A   Clear
12:55 AM 45.0 °F 42.6 °F 34.0 °F 65% 30.15 in 10.0 mi SE 4.6 mph - N/A   Mostly Cloudy
1:14 AM 45.1 °F 43.7 °F 34.2 °F 65% 30.15 in 10.0 mi SSE 3.5 mph - N/A   Overcast
1:35 AM 45.1 °F 43.7 °F 34.2 °F 65% 30.14 in 10.0 mi SSE 3.5 mph - N/A   Overcast
1:54 AM 44.1 °F - 34.5 °F 69% 30.13 in 10.0 mi Calm Calm - N/A   Overcast
2:15 AM 44.2 °F - 34.3 °F 68% 30.13 in 10.0 mi Calm Calm - N/A   Overcast
2:35 AM 43.9 °F - 34.3 °F 69% 30.13 in 10.0 mi Calm Calm - N/A   Overcast
2:54 AM 43.5 °F 41.9 °F 34.3 °F 70% 30.13 in 10.0 mi SE 3.5 mph - N/A   Overcast
3:15 AM 44.1 °F - 34.2 °F 68% 30.13 in 10.0 mi Calm Calm - N/A   Overcast
3:35 AM 43.5 °F - 34.2 °F 70% 30.13 in 10.0 mi Calm Calm - N/A   Overcast
3:54 AM 43.5 °F - 34.3 °F 70% 30.13 in 10.0 mi Calm Calm - N/A   Overcast
4:15 AM 42.8 °F - 34.9 °F 74% 30.12 in 10.0 mi Calm Calm - N/A   Overcast
4:34 AM 42.3 °F - 34.9 °F 75% 30.12 in 10.0 mi Calm Calm - N/A   Overcast
4:55 AM 42.3 °F - 34.9 °F 75% 30.12 in 10.0 mi Calm Calm - N/A   Scattered Clouds
5:15 AM 41.0 °F 39.0 °F 35.4 °F 81% 30.12 in 10.0 mi South 3.5 mph - N/A   Scattered Clouds
5:34 AM 42.4 °F - 35.1 °F 75% 30.12 in 10.0 mi Calm Calm - N/A   Scattered Clouds
5:54 AM 42.3 °F - 35.2 °F 76% 30.12 in 10.0 mi Calm Calm - N/A   Mostly Cloudy
6:14 AM 41.5 °F - 35.2 °F 78% 30.12 in 10.0 mi Calm Calm - N/A   Overcast
6:35 AM 41.5 °F - 35.8 °F 80% 30.12 in 10.0 mi Calm Calm - N/A   Overcast
6:54 AM 43.2 °F - 35.2 °F 74% 30.12 in 10.0 mi Calm Calm - N/A   Overcast
7:15 AM 42.6 °F - 35.2 °F 75% 30.11 in 10.0 mi Calm Calm - N/A   Overcast
7:34 AM 42.1 °F - 35.4 °F 77% 30.11 in 10.0 mi Calm Calm - N/A   Overcast
7:55 AM 42.6 °F - 35.8 °F 77% 30.12 in 10.0 mi Calm Calm - N/A   Overcast
8:14 AM 43.2 °F - 35.8 °F 75% 30.12 in 10.0 mi Calm Calm - N/A   Overcast
8:34 AM 43.2 °F - 36.9 °F 78% 30.13 in 10.0 mi Calm Calm - N/A   Overcast
8:55 AM 43.2 °F - 37.9 °F 82% 30.13 in 10.0 mi Calm Calm - N/A   Overcast
9:14 AM 45.9 °F - 36.1 °F 69% 30.12 in 10.0 mi Calm Calm - N/A   Overcast
9:35 AM 46.8 °F - 36.0 °F 66% 30.12 in 10.0 mi Calm Calm - N/A   Overcast
9:54 AM 47.8 °F - 36.1 °F 64% 30.12 in 10.0 mi Calm Calm - N/A   Overcast
10:14 AM 49.6 °F - 35.6 °F 59% 30.12 in 10.0 mi Calm Calm - N/A   Overcast
10:35 AM 50.2 °F - 37.2 °F 61% 30.12 in 10.0 mi Calm Calm - N/A   Overcast
10:54 AM 50.7 °F - 38.5 °F 63% 30.12 in 10.0 mi Calm Calm - N/A   Overcast
11:15 AM 51.4 °F - 38.7 °F 62% 30.12 in 10.0 mi Calm Calm - N/A   Overcast
11:35 AM 53.1 °F - 37.2 °F 55% 30.11 in 10.0 mi Calm Calm - N/A   Overcast
11:54 AM 54.0 °F - 37.6 °F 54% 30.11 in 10.0 mi Calm Calm - N/A   Overcast
12:15 PM 54.1 °F - 37.6 °F 54% 30.10 in 10.0 mi Calm Calm - N/A   Overcast
12:34 PM 54.7 °F - 37.4 °F 52% 30.09 in 10.0 mi Calm Calm - N/A   Overcast
12:55 PM 55.2 °F - 37.2 °F 51% 30.08 in 10.0 mi ESE 3.5 mph - N/A   Overcast
1:15 PM 55.8 °F - 37.0 °F 49% 30.07 in 10.0 mi Calm Calm - N/A   Overcast
1:34 PM 56.5 °F - 37.4 °F 49% 30.07 in 10.0 mi SSE 3.5 mph - N/A   Mostly Cloudy
1:55 PM 57.2 °F - 35.4 °F 44% 30.07 in 10.0 mi SSW 4.6 mph - N/A   Scattered Clouds
2:14 PM 55.9 °F - 35.8 °F 47% 30.07 in 10.0 mi South 5.8 mph - N/A   Mostly Cloudy
2:35 PM 55.6 °F - 35.4 °F 47% 30.07 in 10.0 mi SSW 3.5 mph - N/A   Overcast
2:54 PM 55.2 °F - 35.8 °F 48% 30.07 in 10.0 mi SSW 3.5 mph - N/A   Overcast
3:14 PM 54.9 °F - 36.1 °F 49% 30.07 in 10.0 mi Calm Calm - N/A   Overcast
3:34 PM 54.9 °F - 36.7 °F 50% 30.07 in 10.0 mi Calm Calm - N/A   Overcast
3:54 PM 54.5 °F - 37.2 °F 52% 30.08 in 10.0 mi Calm Calm - N/A   Overcast
4:15 PM 54.1 °F - 36.9 °F 52% 30.09 in 10.0 mi Calm Calm - N/A   Overcast
4:34 PM 53.6 °F - 37.4 °F 54% 30.08 in 10.0 mi Calm Calm - N/A Rain Light Rain
4:55 PM 53.1 °F - 37.8 °F 56% 30.09 in 10.0 mi Calm Calm - N/A   Light Drizzle
5:15 PM 52.0 °F - 37.9 °F 59% 30.09 in 10.0 mi Calm Calm - N/A   Overcast
5:34 PM 52.0 °F - 38.1 °F 59% 30.09 in 10.0 mi Calm Calm - N/A   Overcast
5:55 PM 51.1 °F - 38.1 °F 61% 30.10 in 10.0 mi Calm Calm - N/A   Overcast
6:14 PM 50.9 °F - 38.5 °F 62% 30.11 in 10.0 mi Calm Calm - N/A   Overcast
6:34 PM 48.9 °F - 39.9 °F 71% 30.11 in 10.0 mi Calm Calm - N/A   Overcast
6:55 PM 48.7 °F - 40.3 °F 73% 30.11 in 10.0 mi Calm Calm - N/A   Overcast
7:14 PM 50.0 °F - 38.5 °F 65% 30.12 in 10.0 mi Calm Calm - N/A   Overcast
7:35 PM 48.4 °F - 40.8 °F 75% 30.13 in 10.0 mi Calm Calm - N/A   Overcast
7:55 PM 48.6 °F - 40.1 °F 73% 30.12 in 10.0 mi Calm Calm - N/A   Overcast
8:14 PM 47.8 °F - 40.8 °F 77% 30.12 in 10.0 mi Calm Calm - N/A   Overcast
8:35 PM 47.1 °F - 40.8 °F 79% 30.13 in 7.0 mi Calm Calm - N/A   Overcast
8:54 PM 48.4 °F - 39.6 °F 72% 30.13 in 10.0 mi Calm Calm - N/A   Overcast
9:15 PM 46.8 °F - 40.1 °F 78% 30.13 in 10.0 mi Calm Calm - N/A   Overcast
9:35 PM 46.2 °F - 40.5 °F 80% 30.13 in 10.0 mi Calm Calm - N/A   Overcast
9:54 PM 45.0 °F - 39.4 °F 81% 30.13 in 10.0 mi Calm Calm - N/A   Overcast
10:15 PM 45.3 °F - 39.7 °F 81% 30.13 in 7.0 mi Calm Calm - N/A   Overcast
10:35 PM 43.7 °F - 39.2 °F 84% 30.14 in 7.0 mi Calm Calm - N/A   Scattered Clouds
10:54 PM 42.6 °F - 38.8 °F 86% 30.14 in 10.0 mi Calm Calm - N/A   Scattered Clouds
11:15 PM 40.8 °F - 37.6 °F 88% 30.14 in 7.0 mi Calm Calm - N/A   Clear
11:35 PM 41.2 °F - 38.7 °F 91% 30.14 in 7.0 mi Calm Calm - N/A   Clear
11:54 PM 40.3 °F - 38.1 °F 92% 30.14 in 5.0 mi Calm Calm - N/A   Clear